User: anonymous   Login
Location: Chiroubles
(46.1812°N, 4.6660°E)
Time: 11:46:58
(UTC+00:00)
Language:

Cosmos 1447 Rocket - Orbit

View from above orbital plane
View from above orbital plane
View from above satellite
View from above satellite

Ground track
Ground track

The orbit data is extracted from the following two-line orbital elements,

1 13917U 83021B   20293.58620244 +.00000080 +00000-0 +65099-4 0  9993
2 13917 082.9443 060.0425 0029786 076.1137 294.6941 13.76862179887522
Epoch (UTC): 19 October 2020 14:04:07
Eccentricity: 0.0029786
inclination: 82.9443°
perigee height: 953 km
apogee height: 997 km
right ascension of ascending node: 60.0425°
argument of perigee: 76.1137°
revolutions per day: 13.76862179
mean anomaly at epoch: 294.6941°
orbit number at epoch: 88752

The dashed part of the orbit path shows where the satellite is in the earth's shadow,  

DLR